Two Harbors, MN

4:03 PM CDT on August 30, 2016 (GMT -0500)
Helgeson

Weather History for KTWM - August, 2013

Change the Weather History Date:

Thursday, August 29, 2013

  Actual Average Record
Temperature  
Mean Temperature 66 °F -  
Max Temperature 71 °F 72 °F 85 °F (1969)
Min Temperature 60 °F 54 °F 37 °F (2004)
Growing Degree Days 16 (Base 50)    
Moisture  
Dew Point 62 °F    
Average Humidity 84    
Maximum Humidity 88    
Minimum Humidity 78    
Precipitation  
Precipitation 1.02 in - - ()
Sea Level Pressure  
Sea Level Pressure 29.94 in    
Wind  
Wind Speed 2 mph (NNW)    
Max Wind Speed 14 mph    
Max Gust Speed 28 mph    
Visibility 8 miles    
Events Rain , Thunderstorm    
Averages and records for this station are not official NWS values.
T = Trace of Precipitation, MM = Missing Value Source: NWS Daily Summary

Daily Weather History Graph

Daily Weather History Graph

Search for Another Location

Airport or City:

Trip Planner

Search our weather history database for the weather conditions in past years. The results will help you decide how hot, cold, wet, or windy it might be!

Date:

Astronomy

Aug. 29, 2013 Rise Set
Actual Time 6:22 AM CDT 7:51 PM CDT
Civil Twilight 5:50 AM CDT 8:23 PM CDT
Nautical Twilight 5:12 AM CDT 9:02 PM CDT
Astronomical Twilight 4:30 AM CDT 9:43 PM CDT
Moon 12:02 AM CDT (8/29) 3:32 PM CDT (8/29)
Length of Visible Light 14h 32m
Length of Day
13h 29m
Last Quarter, 38% of the Moon is Illuminated
Aug 29
Last Quarter
Sep 5
New
Sep 12
First Quarter
Sep 19
Full
Sep 26
Last Quarter

Hourly Weather History & Observations

Time (CDT) Temp. Dew Point Humidity Pressure Visibility Wind Dir Wind Speed Gust Speed Precip Events Conditions
12:13 AM 68.0 °F 62.6 °F 83% 30.03 in 10.0 mi NW 3.5 mph - N/A   Clear
12:33 AM 66.2 °F 60.8 °F 83% 30.03 in 10.0 mi NW 3.5 mph - N/A   Clear
12:53 AM 64.4 °F 60.8 °F 88% 30.02 in 10.0 mi Calm Calm - N/A   Clear
1:13 AM 64.4 °F 59.0 °F 83% 30.02 in 10.0 mi Calm Calm - N/A   Clear
1:33 AM 64.4 °F 59.0 °F 83% 30.02 in 7.0 mi Calm Calm - N/A   Clear
1:54 AM 64.4 °F 60.8 °F 88% 30.01 in 7.0 mi Calm Calm - N/A   Clear
2:13 AM 64.4 °F 59.0 °F 83% 30.01 in 4.0 mi Calm Calm - N/A   Haze
2:33 AM 62.6 °F 57.2 °F 82% 30.01 in 4.0 mi Calm Calm - N/A   Haze
2:54 AM 62.6 °F 57.2 °F 82% 30.01 in 5.0 mi North 3.5 mph - N/A   Haze
3:13 AM 64.4 °F 60.8 °F 88% 30.01 in 10.0 mi North 4.6 mph - N/A   Clear
3:33 AM 62.6 °F 57.2 °F 82% 30.01 in 5.0 mi Calm Calm - N/A   Clear
3:54 AM 62.6 °F 57.2 °F 82% 30.01 in 5.0 mi Calm Calm - N/A   Haze
4:13 AM 60.8 °F 55.4 °F 82% 30.01 in 4.0 mi Calm Calm - N/A   Haze
4:33 AM 60.8 °F 55.4 °F 82% 30.01 in 5.0 mi North 3.5 mph - N/A   Haze
4:53 AM 60.8 °F 55.4 °F 82% 30.01 in 7.0 mi Calm Calm - N/A   Clear
5:13 AM 60.8 °F 55.4 °F 82% 30.00 in 5.0 mi Calm Calm - N/A   Haze
5:34 AM 60.8 °F 55.4 °F 82% 30.00 in 5.0 mi Calm Calm - N/A   Haze
5:53 AM 60.8 °F 55.4 °F 82% 30.00 in 5.0 mi Calm Calm - N/A   Haze
6:13 AM 60.8 °F 55.4 °F 82% 30.00 in 5.0 mi Calm Calm - N/A   Haze
6:33 AM 60.8 °F 55.4 °F 82% 30.01 in 4.0 mi Calm Calm - N/A   Haze
6:53 AM 60.8 °F 55.4 °F 82% 30.01 in 10.0 mi Calm Calm - N/A   Clear
7:13 AM 62.6 °F 57.2 °F 82% 30.02 in 4.0 mi Calm Calm - N/A   Haze
7:33 AM 62.6 °F 57.2 °F 82% 30.01 in 7.0 mi Calm Calm - N/A   Clear
7:53 AM 66.2 °F 60.8 °F 83% 30.01 in 10.0 mi Calm Calm - N/A   Clear
8:13 AM 69.8 °F 64.4 °F 83% 30.00 in 10.0 mi Calm Calm - N/A   Clear
8:33 AM 69.8 °F 64.4 °F 83% 30.00 in 10.0 mi Calm Calm - N/A   Scattered Clouds
8:54 AM 69.8 °F 64.4 °F 83% 29.99 in 10.0 mi Calm Calm - N/A   Scattered Clouds
9:13 AM 71.6 °F 64.4 °F 78% 29.99 in 10.0 mi Calm Calm - N/A   Scattered Clouds
9:33 AM 71.6 °F 66.2 °F 83% 30.01 in 10.0 mi Calm Calm - N/A   Scattered Clouds
9:54 AM 71.6 °F 64.4 °F 78% 30.00 in 10.0 mi Calm Calm - N/A   Mostly Cloudy
10:13 AM 71.6 °F 66.2 °F 83% 30.01 in 10.0 mi Calm Calm - N/A   Scattered Clouds
10:33 AM 71.6 °F 66.2 °F 83% 29.99 in 4.0 mi East 3.5 mph - 0.01 in   Haze
10:54 AM 71.6 °F 66.2 °F 83% 29.98 in 10.0 mi Calm Calm - 0.01 in   Mostly Cloudy
11:13 AM 71.6 °F 66.2 °F 83% 29.98 in 10.0 mi Calm Calm - N/A   Scattered Clouds
11:33 AM 71.6 °F 66.2 °F 83% 29.98 in 10.0 mi Calm Calm - N/A   Clear
11:54 AM 71.6 °F 66.2 °F 83% 29.97 in 7.0 mi Calm Calm - N/A   Light Drizzle
12:13 PM 71.6 °F 66.2 °F 83% 29.96 in 7.0 mi Calm Calm - 0.01 in   Scattered Clouds
12:33 PM 71.6 °F 66.2 °F 83% 29.97 in 5.0 mi Calm Calm - 0.01 in Thunderstorm Haze
12:54 PM 71.6 °F 66.2 °F 83% 30.01 in 1.5 mi West 13.8 mph 19.6 mph 0.12 in Rain , Thunderstorm Rain
1:13 PM 64.4 °F 60.8 °F 88% 30.01 in 2.0 mi North 8.1 mph 27.6 mph 0.59 in Rain , Thunderstorm Heavy Thunderstorms and Rain
1:28 PM 64.4 °F 60.8 °F 88% 30.01 in 10.0 mi North 4.6 mph - 0.73 in Rain , Thunderstorm Thunderstorms and Rain
1:53 PM 64.4 °F 60.8 °F 88% 29.96 in 10.0 mi NE 4.6 mph - 0.88 in Rain , Thunderstorm Light Thunderstorms and Rain
2:13 PM 66.2 °F 60.8 °F 83% 29.95 in 10.0 mi NE 4.6 mph - N/A Thunderstorm Scattered Clouds
2:33 PM 66.2 °F 62.6 °F 88% 29.95 in 10.0 mi East 4.6 mph - N/A Rain Light Rain
2:53 PM 66.2 °F 62.6 °F 88% 29.93 in 10.0 mi ENE 4.6 mph - N/A   Clear
3:13 PM 66.2 °F 62.6 °F 88% 29.94 in 10.0 mi Calm Calm - N/A   Scattered Clouds
3:33 PM 66.2 °F 62.6 °F 88% 29.94 in 10.0 mi Calm Calm - N/A Rain , Thunderstorm Light Thunderstorms and Rain
3:53 PM 66.2 °F 62.6 °F 88% 29.94 in 10.0 mi Calm Calm - N/A   Clear
4:13 PM 66.2 °F 60.8 °F 83% 29.90 in 10.0 mi SSE 3.5 mph - 0.01 in Rain Light Rain
4:33 PM 66.2 °F 62.6 °F 88% 29.90 in 10.0 mi Calm Calm - 0.01 in   Scattered Clouds
4:53 PM 68.0 °F 62.6 °F 83% 29.89 in 10.0 mi Calm Calm - 0.01 in   Scattered Clouds
5:13 PM 68.0 °F 62.6 °F 83% 29.89 in 10.0 mi Calm Calm - N/A   Scattered Clouds
5:33 PM 69.8 °F 64.4 °F 83% 29.89 in 10.0 mi SSE 3.5 mph - N/A   Mostly Cloudy
5:53 PM 69.8 °F 62.6 °F 78% 29.89 in 10.0 mi Calm Calm - N/A   Scattered Clouds
6:12 PM 69.8 °F 64.4 °F 83% 29.88 in 10.0 mi Calm Calm - N/A   Mostly Cloudy
6:33 PM 68.0 °F 62.6 °F 83% 29.86 in 10.0 mi Calm Calm - N/A Thunderstorm Scattered Clouds
6:53 PM 68.0 °F 62.6 °F 83% 29.86 in 10.0 mi Calm Calm - N/A   Scattered Clouds
7:13 PM 68.0 °F 62.6 °F 83% 29.86 in 10.0 mi Calm Calm - N/A   Scattered Clouds
7:33 PM 66.2 °F 62.6 °F 88% 29.85 in 10.0 mi Calm Calm - N/A   Scattered Clouds
7:53 PM 66.2 °F 62.6 °F 88% 29.81 in 10.0 mi South 3.5 mph - N/A   Clear
8:13 PM 66.2 °F 62.6 °F 88% 29.76 in 10.0 mi South 9.2 mph - N/A   Clear
8:33 PM 68.0 °F 62.6 °F 83% 29.84 in 10.0 mi NNW 3.5 mph - N/A   Scattered Clouds
8:53 PM 69.8 °F 64.4 °F 83% 29.82 in 10.0 mi SSW 8.1 mph - N/A   Scattered Clouds
9:13 PM 69.8 °F 64.4 °F 83% 29.81 in 10.0 mi SW 3.5 mph - N/A   Clear
9:33 PM 66.2 °F 62.6 °F 88% 29.81 in 10.0 mi Calm Calm - N/A   Clear
9:54 PM 66.2 °F 62.6 °F 88% 29.82 in 10.0 mi West 5.8 mph - N/A   Clear
10:13 PM 66.2 °F 62.6 °F 88% 29.83 in 10.0 mi West 4.6 mph - N/A   Clear
10:33 PM 66.2 °F 62.6 °F 88% 29.83 in 10.0 mi Calm Calm - N/A   Scattered Clouds
10:52 PM 66.2 °F 62.6 °F 88% 29.82 in 10.0 mi Calm Calm - N/A   Scattered Clouds
11:13 PM 69.8 °F 64.4 °F 83% 29.82 in 10.0 mi WNW 4.6 mph - N/A   Mostly Cloudy
11:33 PM 69.8 °F 64.4 °F 83% 29.82 in 10.0 mi NW 6.9 mph - N/A   Overcast
11:53 PM 69.8 °F 64.4 °F 83% 29.82 in 10.0 mi NW 5.8 mph - N/A   Overcast